DW9813 Weather Reports


time (UTC)temp
F
wind
direction
speed
knots
gust
knots
rain 1hr
in
rain 24hr
in
rain mn
in
humidity
%
barometer
mb
20260510105036 61 0 0.0 0.0 0.00 0.19 0.18 91 1013.6
20260510104555 61 0 0.0 0.0 0.00 0.19 0.18 91 1013.7
20260510104035 61 0 0.0 0.0 0.00 0.19 0.18 91 1013.6
20260510103535 61 0 0.0 0.0 0.00 0.19 0.18 91 1013.4
20260510103052 61 0 0.0 0.0 0.00 0.19 0.18 90 1013.4
20260510102536 61 0 0.0 0.0 0.00 0.19 0.18 90 1013.5
20260510102036 61 0 0.0 0.0 0.00 0.19 0.18 90 1013.6
20260510101551 61 0 0.0 0.0 0.00 0.19 0.18 90 1013.5
20260510101039 62 0 0.0 0.0 0.00 0.19 0.18 90 1013.4
20260510100538 62 0 0.0 0.0 0.00 0.19 0.18 90 1013.6
20260510100046 62 0 0.0 1.7 0.00 0.19 0.18 90 1013.6
20260510095540 62 0 0.0 3.5 0.00 0.19 0.18 90 1013.6
20260510095039 62 0 0.9 4.3 0.00 0.19 0.18 90 1013.7
20260510094545 62 169 1.7 5.2 0.00 0.19 0.18 90 1013.7
20260510094040 62 151 2.6 5.2 0.00 0.19 0.18 89 1013.7
20260510093541 62 172 1.7 5.2 0.00 0.19 0.18 89 1013.9
20260510093054 62 204 2.6 5.2 0.00 0.19 0.18 89 1013.9
20260510092540 62 161 2.6 7.0 0.00 0.19 0.18 89 1013.8
20260510092039 62 179 4.3 7.0 0.00 0.19 0.18 89 1014.0
20260510091553 62 167 4.3 7.0 0.00 0.19 0.18 88 1013.9
20260510091039 63 198 2.6 4.3 0.00 0.19 0.18 88 1013.8
20260510090545 62 0 0.0 2.6 0.00 0.19 0.18 88 1013.5
20260510090052 62 0 0.0 2.6 0.00 0.19 0.18 88 1013.1
20260510085539 63 0 0.0 4.3 0.00 0.19 0.18 88 1013.0
20260510085044 63 324 1.7 7.8 0.00 0.19 0.18 88 1012.7
20260510084549 63 325 0.9 13.0 0.00 0.19 0.18 88 1012.3
20260510084039 63 323 5.2 15.6 0.00 0.19 0.18 87 1011.7
20260510083538 63 48 8.7 15.6 0.00 0.19 0.18 87 1009.4
20260510083100 63 114 8.7 13.9 0.00 0.19 0.18 87 1008.7
20260510082540 63 119 7.8 13.0 0.01 0.19 0.18 87 1009.8
20260510082040 63 89 7.8 13.0 0.01 0.19 0.18 86 1010.2
20260510081550 63 105 7.0 10.4 0.02 0.19 0.18 87 1010.9
20260510081040 63 84 3.5 10.4 0.10 0.19 0.18 88 1011.3
20260510080539 63 101 2.6 9.6 0.13 0.19 0.18 88 1011.8
20260510080045 63 48 1.7 12.2 0.14 0.19 0.18 87 1011.9
20260510075536 63 67 7.0 12.2 0.14 0.19 0.18 86 1011.4
20260510075042 63 153 7.8 11.3 0.14 0.19 0.18 86 1011.4
20260510074548 64 182 6.1 9.6 0.14 0.19 0.18 86 1012.2
20260510074039 64 190 5.2 8.7 0.15 0.19 0.18 86 1012.7
20260510073539 64 191 4.3 7.0 0.18 0.19 0.18 85 1013.1
20260510073055 64 209 2.6 7.0 0.18 0.19 0.18 87 1013.5
20260510072539 64 205 4.3 9.6 0.17 0.18 0.17 87 1013.6
20260510072037 65 261 3.5 9.6 0.17 0.18 0.17 87 1014.1
20260510071550 65 234 2.6 8.7 0.16 0.17 0.16 86 1014.4
20260510071040 65 178 3.5 9.6 0.08 0.09 0.08 85 1014.9
20260510070540 66 150 4.3 9.6 0.05 0.06 0.05 85 1014.9
20260510070051 66 263 4.3 9.6 0.04 0.05 0.04 85 1015.3
20260510065544 65 215 4.3 11.3 0.04 0.05 0.04 84 1015.0
20260510065039 65 164 3.5 11.3 0.04 0.05 0.04 82 1014.4
20260510064545 65 272 4.3 9.6 0.04 0.05 0.04 79 1014.0
20260510064036 65 30 1.7 8.7 0.03 0.04 0.03 81 1013.7
20260510063540 65 207 4.3 7.8 0.00 0.01 0.00 80 1013.6
20260510063044 64 201 1.7 5.2 0.00 0.01 0.00 79 1013.5
20260510062538 64 0 0.0 0.0 0.00 0.01 0.00 80 1013.4
20260510062043 64 0 0.0 0.0 0.00 0.01 0.00 83 1013.5
20260510061546 64 0 0.0 0.0 0.00 0.01 0.00 84 1013.5
20260510061040 64 0 0.0 0.0 0.00 0.01 0.00 83 1013.5
20260510060541 64 0 0.0 0.0 0.00 0.01 0.00 83 1013.7
20260510060044 64 0 0.0 0.0 0.00 0.01 0.00 82 1014.0
20260510055539 64 0 0.0 0.0 0.00 0.01 0.00 83 1014.1
20260510055039 64 0 0.0 0.0 0.00 0.01 0.00 84 1013.9
20260510054541 64 0 0.0 0.0 0.00 0.01 0.00 84 1013.9
20260510054039 64 0 0.0 0.0 0.00 0.01 0.00 84 1013.8
20260510053540 64 0 0.0 0.0 0.00 0.01 0.00 83 1013.8
20260510053049 65 0 0.0 0.0 0.00 0.01 0.00 83 1013.6
20260510052540 65 0 0.0 0.0 0.00 0.01 0.00 82 1013.6
20260510052039 65 0 0.0 0.0 0.00 0.01 0.00 82 1013.5
20260510051550 65 0 0.0 0.0 0.00 0.01 0.00 81 1013.2
20260510051042 65 0 0.0 0.0 0.00 0.01 0.00 80 1013.1
20260510050542 66 0 0.0 0.0 0.00 0.01 0.00 80 1012.9
20260510050045 66 0 0.0 0.0 0.00 0.01 0.00 81 1012.9
20260510045540 66 0 0.0 0.0 0.00 0.01 0.01 80 1013.0
20260510045040 66 0 0.0 0.0 0.00 0.01 0.01 79 1012.9
20260510044550 66 0 0.0 0.0 0.00 0.01 0.01 79 1012.8
20260510044039 66 0 0.0 0.0 0.00 0.01 0.01 78 1012.9
20260510043539 66 0 0.0 0.0 0.00 0.01 0.01 79 1013.0
20260510043053 66 0 0.0 0.9 0.00 0.01 0.01 78 1013.1
20260510042537 66 0 0.0 1.7 0.00 0.01 0.01 78 1013.2
20260510042040 66 0 0.0 2.6 0.00 0.01 0.01 78 1013.0
20260510041553 65 77 0.0 2.6 0.00 0.01 0.01 76 1012.7
20260510041040 65 77 0.0 0.9 0.00 0.01 0.01 77 1012.5
20260510040541 65 0 0.0 0.0 0.00 0.01 0.01 76 1012.5
20260510040050 66 0 0.0 0.0 0.00 0.01 0.01 76 1012.5
20260510035540 66 0 0.0 0.9 0.00 0.02 0.01 77 1012.4
20260510035051 66 0 0.0 2.6 0.00 0.02 0.01 77 1012.5
20260510034552 65 57 0.0 2.6 0.00 0.02 0.01 76 1012.4
20260510034040 65 0 0.0 1.7 0.00 0.02 0.01 74 1012.3
20260510033541 64 48 0.0 1.7 0.00 0.02 0.01 75 1012.3
20260510033126 64 0 0.0 0.0 0.00 0.02 0.01 78 1012.6
20260510032539 64 0 0.0 0.0 0.00 0.02 0.01 79 1012.8
20260510032039 64 0 0.0 1.7 0.00 0.02 0.01 79 1012.7
20260510031553 64 0 0.0 1.7 0.00 0.02 0.01 79 1012.7
20260510031039 64 0 0.0 0.9 0.00 0.02 0.01 78 1012.3
20260510030536 64 0 0.0 0.9 0.00 0.02 0.01 79 1012.3
20260510030056 65 0 0.0 0.0 0.00 0.02 0.01 78 1012.0
20260510025540 65 0 0.0 0.0 0.00 0.04 0.01 77 1011.8
20260510025039 66 0 0.0 0.0 0.00 0.04 0.01 74 1011.7
20260510024548 66 0 0.0 0.0 0.00 0.04 0.01 74 1011.5
20260510024040 67 0 0.0 0.0 0.00 0.04 0.01 73 1011.3
20260510023540 68 0 0.0 0.0 0.00 0.04 0.01 72 1011.2
20260510023055 68 0 0.0 0.0 0.00 0.04 0.01 70 1011.0
20260510022540 69 0 0.0 0.0 0.00 0.04 0.01 67 1010.9
20260510022040 70 0 0.0 0.0 0.00 0.04 0.01 66 1010.8
20260510021557 70 0 0.0 0.0 0.00 0.04 0.01 67 1010.9
20260510021041 71 0 0.0 0.0 0.00 0.04 0.01 66 1010.9
20260510020540 72 0 0.0 0.0 0.00 0.04 0.01 66 1010.9
20260510020044 72 0 0.0 0.0 0.00 0.04 0.01 65 1010.6
20260510015540 73 0 0.0 0.0 0.00 0.09 0.01 62 1010.6
20260510015039 74 0 0.0 0.9 0.00 0.09 0.01 58 1010.4
20260510014553 74 0 0.0 0.9 0.00 0.09 0.01 56 1010.4
20260510014039 75 0 0.0 0.9 0.00 0.09 0.01 55 1010.4
20260510013541 75 0 0.0 0.9 0.00 0.09 0.01 54 1010.4
20260510013049 75 0 0.0 0.9 0.00 0.09 0.01 53 1010.4
20260510012543 76 0 0.0 0.9 0.00 0.09 0.01 52 1010.3
20260510012039 77 0 0.0 0.9 0.00 0.09 0.01 52 1010.3
20260510011552 77 0 0.0 0.9 0.00 0.09 0.01 52 1010.2
20260510011041 77 0 0.0 1.7 0.00 0.09 0.01 51 1010.2
20260510010540 78 0 0.0 1.7 0.00 0.09 0.01 49 1010.2
20260510010053 78 141 0.0 3.5 0.00 0.09 0.01 49 1010.1
20260510005538 79 103 0.9 3.5 0.00 0.17 0.01 48 1010.1
20260510005039 79 24 0.9 3.5 0.00 0.17 0.01 46 1010.0
20260510004547 80 130 0.9 3.5 0.00 0.17 0.01 46 1009.9
20260510004039 80 130 0.9 2.6 0.00 0.17 0.01 46 1009.9
20260510003541 80 136 0.0 2.6 0.00 0.17 0.01 46 1009.9
20260510003103 81 0 0.0 4.3 0.00 0.17 0.01 46 1009.9
20260510002539 81 138 0.9 4.3 0.00 0.17 0.01 46 1009.9
20260510002039 81 163 0.9 5.2 0.00 0.17 0.01 45 1009.9
20260510001549 81 117 1.7 5.2 0.00 0.17 0.01 44 1009.8
20260510001040 81 136 1.7 5.2 0.00 0.17 0.01 44 1009.8
20260510000539 82 156 2.6 5.2 0.00 0.17 0.01 43 1009.8
20260510000054 82 119 1.7 3.5 0.00 0.17 0.01 43 1009.9
20260509235539 82 155 1.7 5.2 0.00 0.17 0.01 42 1009.9
20260509235036 82 145 1.7 6.1 0.00 0.17 0.01 43 1010.0
20260509234554 82 148 2.6 7.8 0.00 0.17 0.01 41 1010.0
20260509234039 82 140 3.5 7.8 0.00 0.17 0.01 39 1010.0
20260509233542 83 121 4.3 7.0 0.00 0.17 0.01 38 1010.0
20260509233051 83 158 1.7 6.1 0.00 0.17 0.01 44 1010.1
20260509232544 83 134 2.6 7.0 0.00 0.17 0.01 40 1010.1
20260509232040 83 161 2.6 7.0 0.00 0.17 0.01 40 1010.2
20260509231545 83 134 2.6 6.1 0.00 0.17 0.01 39 1010.2
20260509231039 83 167 1.7 6.1 0.00 0.17 0.01 38 1010.2
20260509230539 83 131 2.6 6.1 0.00 0.17 0.01 38 1010.3
20260509230053 83 107 2.6 6.1 0.00 0.17 0.01 35 1010.2
20260509225540 84 126 2.6 7.8 0.00 0.17 0.01 34 1010.2
20260509225039 84 102 2.6 7.8 0.00 0.17 0.01 34 1010.3
20260509224556 84 169 3.5 7.0 0.00 0.17 0.01 33 1010.3
20260509224041 85 105 1.7 6.1 0.00 0.17 0.01 32 1010.2
20260509223539 85 169 2.6 6.1 0.00 0.17 0.01 33 1010.3
20260509223053 84 194 1.7 6.1 0.00 0.17 0.01 33 1010.2
20260509222539 84 155 2.6 6.1 0.00 0.17 0.01 32 1010.3
20260509222039 84 0 0.9 3.5 0.00 0.17 0.01 32 1010.3
20260509221555 84 131 0.0 8.7 0.00 0.17 0.01 32 1010.3
20260509221039 83 329 0.9 8.7 0.00 0.17 0.01 34 1010.3
20260509220539 83 111 2.6 7.8 0.00 0.17 0.01 31 1010.3
20260509220049 83 109 2.6 5.2 0.00 0.17 0.01 30 1010.3
20260509215540 84 63 1.7 7.0 0.00 0.17 0.01 31 1010.3
20260509215040 84 56 3.5 7.0 0.00 0.17 0.01 29 1010.3
20260509214555 84 83 1.7 7.8 0.00 0.17 0.01 33 1010.2
20260509214040 83 85 2.6 7.8 0.00 0.17 0.01 31 1010.3
20260509213540 83 134 3.5 7.8 0.00 0.17 0.01 30 1010.4
20260509213057 83 103 3.5 7.8 0.00 0.17 0.01 29 1010.4
20260509212539 83 84 2.6 7.8 0.00 0.17 0.01 30 1010.6
20260509212039 83 44 3.5 7.8 0.00 0.17 0.01 29 1010.7
20260509211544 84 120 3.5 7.8 0.00 0.17 0.01 32 1010.7
20260509211040 84 126 1.7 5.2 0.00 0.17 0.01 33 1010.7
20260509210537 84 109 0.9 7.8 0.00 0.17 0.01 36 1010.8
20260509210058 83 0 0.9 8.7 0.00 0.17 0.01 37 1010.8
20260509205539 83 162 4.3 8.7 0.00 0.17 0.01 39 1010.9
20260509205039 83 77 3.5 9.6 0.00 0.17 0.01 36 1010.9
20260509204552 84 225 2.6 9.6 0.00 0.17 0.01 41 1011.0
20260509204039 84 138 1.7 7.0 0.00 0.17 0.01 41 1011.1
20260509203539 84 112 3.5 7.0 0.00 0.17 0.01 38 1011.1
20260509203052 84 168 0.9 6.1 0.00 0.17 0.01 37 1011.1
20260509202539 84 109 1.7 7.0 0.00 0.17 0.01 37 1011.1
20260509202037 83 109 1.7 7.0 0.00 0.17 0.01 36 1011.2
20260509201545 83 116 2.6 6.1 0.00 0.17 0.01 35 1011.2
20260509201036 83 126 0.9 6.1 0.00 0.17 0.01 31 1011.2
20260509200536 83 105 2.6 7.0 0.00 0.17 0.01 31 1011.2
20260509200045 84 84 1.7 7.0 0.00 0.17 0.01 36 1011.4
20260509195542 84 40 0.0 4.3 0.00 0.17 0.01 34 1011.5
20260509195042 83 217 0.9 4.3 0.00 0.17 0.01 35 1011.5
20260509194552 83 178 1.7 4.3 0.00 0.17 0.01 36 1011.5
20260509194036 83 144 0.9 4.3 0.00 0.17 0.01 31 1011.7
20260509193540 82 0 0.9 4.3 0.00 0.17 0.01 32 1011.9
20260509193055 82 329 0.0 7.0 0.00 0.17 0.01 35 1011.9
20260509192536 82 125 1.7 7.0 0.00 0.17 0.01 33 1011.9
20260509192036 82 77 1.7 7.0 0.00 0.17 0.01 36 1011.9
20260509191550 81 126 0.9 7.8 0.00 0.17 0.01 38 1012.0
20260509191040 81 69 1.7 7.8 0.00 0.17 0.01 37 1011.9
20260509190540 81 63 2.6 7.0 0.00 0.17 0.01 35 1011.9
20260509190052 81 141 2.6 8.7 0.00 0.17 0.01 36 1011.8
20260509185539 81 103 2.6 8.7 0.00 0.17 0.01 33 1011.8
20260509185039 81 118 3.5 7.0 0.00 0.17 0.01 36 1011.8
20260509184552 81 117 3.5 6.1 0.00 0.17 0.01 37 1011.7
20260509184036 80 166 1.7 6.1 0.00 0.17 0.01 52 1011.7
20260509183536 80 0 2.6 6.1 0.00 0.17 0.01 50 1011.8
20260509183051 80 234 1.7 6.1 0.00 0.17 0.01 51 1012.0
20260509182539 80 147 1.7 7.0 0.00 0.17 0.01 50 1012.0
20260509182037 79 121 1.7 7.0 0.00 0.17 0.01 47 1012.0
20260509181606 79 115 3.5 7.0 0.00 0.17 0.01 50 1011.9
20260509181037 79 177 0.0 7.0 0.00 0.17 0.01 57 1011.9
20260509180536 79 154 2.6 7.0 0.00 0.17 0.01 56 1012.1
20260509180112 79 113 0.9 4.3 0.00 0.17 0.01 58 1012.0
20260509175536 79 82 2.6 4.3 0.00 0.17 0.01 57 1012.1
20260509175037 79 56 0.9 6.1 0.00 0.17 0.01 59 1012.2
20260509174549 79 233 0.9 6.1 0.00 0.17 0.01 61 1012.2
20260509174040 78 0 0.0 5.2 0.00 0.17 0.01 64 1012.3
20260509173536 77 0 0.9 5.2 0.00 0.17 0.01 61 1012.3
20260509173106 77 195 2.6 5.2 0.00 0.17 0.01 62 1012.4
20260509172537 77 0 0.0 3.5 0.00 0.17 0.01 63 1012.6
20260509172037 77 36 0.9 4.3 0.00 0.17 0.01 60 1012.7
20260509171551 77 21 1.7 4.3 0.00 0.17 0.01 62 1012.6
20260509171038 77 30 0.9 5.2 0.00 0.17 0.01 62 1012.8
20260509170536 77 102 0.9 5.2 0.00 0.17 0.01 62 1012.7
20260509170051 76 71 1.7 5.2 0.00 0.17 0.01 65 1012.8
20260509165536 76 202 1.7 4.3 0.00 0.17 0.01 66 1012.7
20260509165037 76 113 0.9 3.5 0.00 0.17 0.01 72 1012.8
20260509164547 75 0 0.0 3.5 0.00 0.17 0.01 72 1012.7
20260509164039 75 312 1.7 2.6 0.00 0.17 0.01 72 1012.8
20260509163536 75 331 0.0 5.2 0.00 0.17 0.01 71 1012.7
20260509163048 75 102 0.9 5.2 0.00 0.17 0.01 72 1012.6
20260509162537 75 202 1.7 4.3 0.00 0.17 0.01 72 1012.6
20260509162037 74 47 1.7 4.3 0.00 0.17 0.01 75 1012.7
20260509161557 73 133 0.9 3.5 0.00 0.17 0.01 78 1012.7
20260509161037 73 0 0.0 2.6 0.00 0.17 0.01 79 1012.7
20260509160537 73 26 0.9 3.5 0.00 0.17 0.01 78 1012.7
20260509160046 73 297 0.9 4.3 0.00 0.17 0.01 78 1012.8
20260509155538 73 233 0.9 4.3 0.00 0.17 0.01 80 1012.8
20260509155038 72 119 0.9 4.3 0.00 0.17 0.01 78 1012.7
20260509154551 72 0 0.9 4.3 0.00 0.17 0.01 79 1012.7
20260509154038 71 196 0.9 4.3 0.00 0.17 0.01 81 1012.7
20260509153543 71 0 0.9 6.1 0.00 0.17 0.01 81 1012.7
20260509153106 71 180 1.7 6.1 0.00 0.17 0.01 82 1012.6
20260509152538 70 199 1.7 4.3 0.00 0.17 0.01 82 1012.8
20260509152038 70 238 0.9 5.2 0.00 0.17 0.01 83 1012.5
20260509151557 70 216 2.6 5.2 0.00 0.17 0.01 82 1012.7
20260509151037 69 0 0.9 3.5 0.00 0.17 0.01 84 1012.7
20260509150541 69 218 0.9 3.5 0.00 0.17 0.01 83 1012.6
20260509150045 68 198 0.0 5.2 0.00 0.17 0.01 84 1012.7
20260509145538 68 198 2.6 5.2 0.00 0.17 0.01 83 1012.7
20260509145040 67 190 2.6 5.2 0.00 0.17 0.01 86 1012.6
20260509144545 67 175 1.7 5.2 0.00 0.17 0.01 86 1012.6
20260509144037 66 195 1.7 5.2 0.00 0.17 0.01 87 1012.5
20260509143538 66 193 2.6 6.1 0.00 0.17 0.01 87 1012.4
20260509143102 66 168 2.6 6.1 0.00 0.17 0.01 89 1012.5
20260509142538 65 205 1.7 5.2 0.00 0.17 0.01 90 1012.5
20260509142038 65 161 1.7 5.2 0.00 0.17 0.01 91 1012.6
20260509141553 64 144 2.6 4.3 0.00 0.17 0.01 92 1012.7
20260509141039 64 175 0.9 4.3 0.00 0.17 0.01 93 1012.6
20260509140538 63 169 0.9 4.3 0.00 0.17 0.01 93 1012.5
20260509140042 63 178 2.6 4.3 0.00 0.17 0.01 94 1012.4
20260509135538 62 142 0.0 3.5 0.00 0.17 0.01 94 1012.2
20260509135038 62 104 0.0 3.5 0.00 0.17 0.01 95 1012.2
20260509134546 61 115 0.9 3.5 0.00 0.17 0.01 95 1012.3
20260509134038 61 123 0.0 1.7 0.00 0.17 0.01 95 1012.1
20260509133538 60 0 0.0 0.9 0.00 0.17 0.01 95 1011.9
20260509133057 60 0 0.0 0.9 0.00 0.17 0.01 95 1011.9
20260509132538 59 0 0.0 1.7 0.00 0.17 0.01 95 1011.9
20260509132038 59 0 0.0 1.7 0.00 0.17 0.01 95 1011.9
20260509131545 58 247 0.0 1.7 0.00 0.17 0.01 95 1011.8
20260509131037 58 0 0.0 0.9 0.00 0.17 0.01 95 1011.7
20260509130538 57 0 0.0 0.9 0.00 0.17 0.01 95 1011.8
20260509130046 57 0 0.0 0.9 0.00 0.17 0.01 95 1011.8
20260509125537 57 0 0.0 1.7 0.00 0.17 0.01 95 1011.7
20260509125037 56 0 0.0 1.7 0.00 0.17 0.01 95 1011.7
20260509124548 55 0 0.0 1.7 0.00 0.17 0.01 95 1011.7
20260509124038 55 0 0.0 0.0 0.00 0.17 0.01 94 1011.7
20260509123538 54 0 0.0 0.9 0.00 0.17 0.01 94 1011.6
20260509123052 54 0 0.0 0.9 0.00 0.17 0.01 94 1011.6
20260509122538 54 0 0.0 0.0 0.00 0.17 0.01 94 1011.5
20260509122038 54 0 0.0 0.9 0.01 0.17 0.01 94 1011.5
20260509121550 54 0 0.0 0.9 0.01 0.17 0.01 94 1011.4
20260509121038 53 0 0.0 0.0 0.01 0.17 0.01 94 1011.4
20260509120538 54 0 0.0 0.0 0.01 0.17 0.01 94 1011.3
20260509120045 54 0 0.0 0.0 0.01 0.17 0.01 94 1011.3
20260509115537 54 0 0.0 0.0 0.01 0.17 0.01 94 1011.4
20260509115037 54 0 0.0 0.0 0.01 0.17 0.01 94 1011.3
20260509114544 54 0 0.0 0.0 0.01 0.17 0.01 94 1011.2
20260509114038 54 0 0.0 0.0 0.01 0.17 0.01 94 1011.2
20260509113538 54 0 0.0 0.0 0.01 0.17 0.01 94 1011.2
20260509113042 54 0 0.0 0.0 0.01 0.17 0.01 94 1011.2
20260509112537 55 0 0.0 0.0 0.01 0.17 0.01 94 1011.1
20260509112037 55 0 0.0 0.0 0.00 0.16 0.00 94 1011.0
20260509111548 55 0 0.0 0.0 0.00 0.16 0.00 94 1010.9
20260509111038 55 0 0.0 0.0 0.00 0.16 0.00 94 1010.9
20260509110542 55 0 0.0 0.0 0.00 0.16 0.00 94 1010.8
20260509110048 55 0 0.0 0.0 0.00 0.16 0.00 94 1010.8
20260509105538 55 0 0.0 0.0 0.00 0.16 0.00 94 1010.7